Preview of NWS' New Version of Forecast
This preview is not operational and should not be used for support decisions.

Regional Weather Roundup (RWR)

Issued by National Weather Service (NWS)

                            
000
ASUS45 KBOI 221310
RWRID 

IDAHO REGIONAL WEATHER ROUNDUP
NATIONAL WEATHER SERVICE BOISE ID
700 AM MDT WED MAY 22 2019

NOTE: "FAIR" INDICATES FEW OR NO CLOUDS BELOW 12000 FEET
WITH NO SIGNIFICANT WEATHER AND/OR OBSTRUCTIONS TO VISIBILITY

IDZ012-014-221400-
SOUTHWEST IDAHO

  
CITY           SKY/WX    TMP DP  RH WIND       PRES   REMARKS
BOISE          CLOUDY    47  43  86 W5        29.67R                  
CALDWELL       CLOUDY    50  44  80 W13       29.69R                  
$$

IDZ016-017-221400-
SOUTHCENTRAL IDAHO

  
CITY           SKY/WX    TMP DP  RH WIND       PRES   REMARKS
BURLEY         LGT RAIN  43  41  93 W7        29.66R                  
JEROME         LGT RAIN  44  43  96 W7        29.68R                  
TWIN FALLS     LGT RAIN  43  42  97 NW9       29.68R                  
$$

IDZ019>023-221400-
SOUTHEAST IDAHO

  
CITY           SKY/WX    TMP DP  RH WIND       PRES   REMARKS
IDAHO FALLS    LGT RAIN  40  37  89 N12       29.70R WCI  33          
POCATELLO      LGT RAIN  42  39  89 NE16      29.65R                  
REXBURG        LGT RAIN  42  31  64 NE13      29.70R                  
$$

IDZ006-010-011-018-031-032-221400-
CENTRAL IDAHO MOUNTAINS

  
CITY           SKY/WX    TMP DP  RH WIND       PRES   REMARKS
MCCALL         CLOUDY    43  33  68 N12       29.71R                  
HAILEY         CLOUDY    41  39  93 NW3       29.70R                  
STANLEY          N/A     36  33  89 N3        29.72R                  
SALMON         CLOUDY    46  34  62 S7        29.80R                  
CHALLIS        CLOUDY    45  33  63 N9        29.74R                  
$$

IDZ002-004-006-007-026-221400-
NORTHERN IDAHO

  
CITY           SKY/WX    TMP DP  RH WIND       PRES   REMARKS
LEWISTON       CLOUDY    52  45  77 W3        29.84R                  
LOWELL           N/A     47  46  97 CALM      29.83R                  
COEUR D'ALENE  MOCLDY    52  37  56 N13       29.89R                  
MULLAN PASS    CLOUDY    34  28  79 CALM      29.90R                  
$$